STARLINK-31846 (60126 NORAD) Tracking and Keplerian Element Data

This shows tracking and keplerian element data for the satellite.

Feedback or suggestion? Click here.




ElementValue
Catalog60126
NameSTARLINK-31846
Epoch Orbit1710
Epoch Day286.60848279
Epoch Year2024
RAAN252.614
Inclination53.1574
Eccentricity0.0001322
Argument of Perigee69.7651
Mean Anonmoly290.3496
Mean Motion15.39615029
Decay Rate0.00075686
L11 60126U 24118P 24286.60848279 .00075686 00000+0 18837-2 0 9997
L22 60126 53.1574 252.6140 0001322 69.7651 290.3496 15.39615029 17107



Live tracking and technical data element details for STARLINK-31846 (NORAD 60126). STARLINK-31846 can be tracked NOW for your location showing map with azimuth and elevation plus other details from your city location.







IsCatalogInMostPopularTable: catalog: 60126, numindb: 9
Update: records affected: 1



GetName: 60126 STARLINK-31846

Hit Count: updated at: Thu, 23 Jan 2025 15:03:50 GMT